| time (UTC) | temp F | wind direction | speed MPH | gust MPH | rain 1hr in | rain 24hr in | rain mn in | humidity % | barometer mb |
| 20260506095729 | 76 | 225 | 2.0 | 4.0 | 0.00 | 0.00 | 0.00 | 88 | 1006.5 |
| 20260506094826 | 76 | 206 | 3.0 | 7.0 | 0.00 | 0.00 | 0.00 | 88 | 1006.3 |
| 20260506093828 | 76 | 225 | 1.0 | 3.0 | 0.00 | 0.00 | 0.00 | 88 | 1006.2 |
| 20260506092927 | 76 | 202 | 2.0 | 4.0 | 0.00 | 0.00 | 0.00 | 88 | 1006.3 |
| 20260506092828 | 76 | 202 | 4.0 | 5.0 | 0.00 | 0.00 | 0.00 | 88 | 1006.3 |
| 20260506091927 | 76 | 225 | 4.0 | 6.0 | 0.00 | 0.00 | 0.00 | 88 | 1006.3 |
| 20260506090927 | 76 | 225 | 3.0 | 4.0 | 0.00 | 0.00 | 0.00 | 88 | 1006.3 |
| 20260506085926 | 77 | 225 | 3.0 | 5.0 | 0.00 | 0.00 | 0.00 | 88 | 1006.2 |
| 20260506084942 | 77 | 211 | 3.0 | 5.0 | 0.00 | 0.00 | 0.00 | 87 | 1006.3 |
| 20260506083943 | 77 | 190 | 6.0 | 9.0 | 0.00 | 0.00 | 0.00 | 87 | 1006.1 |
| 20260506083028 | 77 | 202 | 4.0 | 6.0 | 0.00 | 0.00 | 0.00 | 87 | 1006.3 |
| 20260506082027 | 77 | 225 | 3.0 | 5.0 | 0.00 | 0.00 | 0.00 | 87 | 1006.3 |
| 20260506081928 | 77 | 219 | 4.0 | 6.0 | 0.00 | 0.00 | 0.00 | 87 | 1006.3 |
| 20260506080929 | 77 | 225 | 3.0 | 5.0 | 0.00 | 0.00 | 0.00 | 86 | 1006.6 |
| 20260505233605 | 82 | 219 | 8.0 | 11.0 | 0.00 | 0.00 | 0.00 | 73 | 1004.5 |
| 20260505232605 | 82 | 228 | 5.0 | 13.0 | 0.00 | 0.00 | 0.00 | 73 | 1004.5 |
| 20260505231702 | 82 | 228 | 5.0 | 10.0 | 0.00 | 0.00 | 0.00 | 72 | 1004.5 |
| 20260505231603 | 82 | 212 | 6.0 | 9.0 | 0.00 | 0.00 | 0.00 | 72 | 1004.6 |
| 20260505230603 | 82 | 204 | 7.0 | 13.0 | 0.00 | 0.00 | 0.00 | 71 | 1004.5 |
| 20260505225603 | 83 | 217 | 10.0 | 15.0 | 0.00 | 0.00 | 0.00 | 71 | 1004.5 |
| 20260505224604 | 83 | 243 | 5.0 | 10.0 | 0.00 | 0.00 | 0.00 | 70 | 1004.3 |
| 20260505223604 | 83 | 225 | 9.0 | 11.0 | 0.00 | 0.00 | 0.00 | 70 | 1004.2 |
| 20260505222603 | 83 | 229 | 5.0 | 8.0 | 0.00 | 0.00 | 0.00 | 69 | 1004.4 |
| 20260505222504 | 83 | 232 | 5.0 | 9.0 | 0.00 | 0.00 | 0.00 | 69 | 1004.5 |
| 20260505221504 | 83 | 225 | 4.0 | 7.0 | 0.00 | 0.00 | 0.00 | 71 | 1004.4 |
| 20260505221405 | 83 | 237 | 5.0 | 11.0 | 0.00 | 0.00 | 0.00 | 71 | 1004.3 |
| 20260505220403 | 83 | 229 | 9.0 | 13.0 | 0.00 | 0.00 | 0.00 | 71 | 1004.5 |
| 20260505215404 | 83 | 223 | 6.0 | 10.0 | 0.00 | 0.00 | 0.00 | 71 | 1004.8 |
| 20260505123912 | 73 | 219 | 3.0 | 7.0 | 0.00 | 0.00 | 0.00 | 85 | 1006.7 |
| 20260505123813 | 73 | 224 | 3.0 | 6.0 | 0.00 | 0.00 | 0.00 | 85 | 1006.8 |
| 20260505122812 | 73 | 228 | 4.0 | 6.0 | 0.00 | 0.00 | 0.00 | 85 | 1006.8 |
| 20260505121812 | 73 | 224 | 4.0 | 7.0 | 0.00 | 0.00 | 0.00 | 86 | 1006.7 |
| 20260505121731 | 73 | 223 | 7.0 | 8.0 | 0.00 | 0.00 | 0.00 | 86 | 1006.8 |
| 20260505120815 | 73 | 236 | 2.0 | 4.0 | 0.00 | 0.00 | 0.00 | 86 | 1006.6 |
| 20260505115813 | 73 | 225 | 4.0 | 10.0 | 0.00 | 0.00 | 0.00 | 86 | 1006.4 |
| 20260505114815 | 73 | 229 | 4.0 | 7.0 | 0.00 | 0.00 | 0.00 | 86 | 1006.3 |
| 20260505114713 | 73 | 228 | 3.0 | 6.0 | 0.00 | 0.00 | 0.00 | 86 | 1006.4 |
| 20260505113714 | 73 | 224 | 5.0 | 8.0 | 0.00 | 0.00 | 0.00 | 86 | 1006.6 |
| 20260505112714 | 72 | 225 | 4.0 | 9.0 | 0.00 | 0.00 | 0.00 | 86 | 1006.6 |
| 20260505110712 | 72 | 235 | 4.0 | 6.0 | 0.00 | 0.00 | 0.00 | 86 | 1006.3 |
| 20260505110612 | 72 | 236 | 4.0 | 8.0 | 0.00 | 0.00 | 0.00 | 86 | 1006.4 |
| 20260505101511 | 72 | 225 | 2.0 | 3.0 | 0.00 | 0.00 | 0.00 | 86 | 1006.5 |
| 20260505100513 | 72 | 247 | 2.0 | 5.0 | 0.00 | 0.00 | 0.00 | 86 | 1006.7 |